Chippewa, MI

4:38 AM EDT on October 17, 2019 (GMT -0400)
Chippewa County International

Weather History for KCIU - August, 2019

Change the Weather History Date:

Monday, August 12, 2019

  Actual Average Record
Temperature  
Mean Temperature 70 °F -  
Max Temperature 79 °F 74 °F 85 °F (1993)
Min Temperature 61 °F 47 °F 32 °F (1979)
Cooling Degree Days 4    
Growing Degree Days 20 (Base 50)    
Moisture  
Dew Point 54 °F    
Average Humidity 66    
Maximum Humidity 97    
Minimum Humidity 33    
Precipitation  
Precipitation 0.00 in - - ()
Sea Level Pressure  
Sea Level Pressure 29.90 in    
Wind  
Wind Speed 7 mph (NNW)    
Max Wind Speed 18 mph    
Max Gust Speed 25 mph    
Visibility 10 miles    
Events      
Averages and records for this station are not official NWS values.
T = Trace of Precipitation, MM = Missing Value Source: NWS Daily Summary

Daily Weather History Graph

Daily Weather History Graph

Search for Another Location

Airport or City:

Astronomy

Aug. 12, 2019 Rise Set
Actual Time 6:32 AM EDT 8:52 PM EDT
Civil Twilight 5:59 AM EDT 9:25 PM EDT
Nautical Twilight 5:18 AM EDT 10:06 PM EDT
Astronomical Twilight 4:31 AM EDT 10:53 PM EDT
Moon 7:29 PM EDT (8/12) 3:32 AM EDT (8/12)
Length of Visible Light 15h 25m
Length of Day
14h 19m
Waxing Gibbous, 93% of the Moon is Illuminated
Aug 12
Waxing Gibbous
Aug 15
Full
Aug 23
Last Quarter
Aug 30
New
Sep 5
First Quarter

Hourly Weather History & Observations

Time (EDT) Temp. Dew Point Humidity Pressure Visibility Wind Dir Wind Speed Gust Speed Precip Events Conditions
12:56 AM 64.0 °F 62.1 °F 93% 29.94 in 10.0 mi WNW 4.6 mph - N/A   Clear
1:56 AM 64.0 °F 63.0 °F 96% 29.93 in 10.0 mi WNW 4.6 mph - N/A   Mostly Cloudy
2:56 AM 63.0 °F 62.1 °F 97% 29.93 in 10.0 mi Calm Calm - N/A   Overcast
3:56 AM 63.0 °F 62.1 °F 97% 29.92 in 10.0 mi NW 4.6 mph - N/A   Overcast
4:56 AM 63.0 °F 61.0 °F 93% 29.93 in 10.0 mi NW 6.9 mph - N/A   Overcast
5:56 AM 62.1 °F 60.1 °F 93% 29.93 in 10.0 mi NNW 6.9 mph - N/A   Overcast
6:56 AM 61.0 °F 60.1 °F 97% 29.92 in 10.0 mi NNW 6.9 mph - N/A   Scattered Clouds
7:56 AM 63.0 °F 61.0 °F 93% 29.94 in 10.0 mi NNW 6.9 mph - N/A   Partly Cloudy
8:56 AM 66.0 °F 59.0 °F 78% 29.93 in 10.0 mi North 4.6 mph - N/A   Mostly Cloudy
9:56 AM 70.0 °F 57.0 °F 63% 29.93 in 10.0 mi Calm Calm - N/A   Clear
10:56 AM 73.9 °F 50.0 °F 43% 29.91 in 10.0 mi NNE 8.1 mph - N/A   Clear
11:56 AM 75.9 °F 50.0 °F 40% 29.91 in 10.0 mi North 10.4 mph - N/A   Clear
12:56 PM 75.0 °F 46.9 °F 37% 29.92 in 10.0 mi NNW 10.4 mph - N/A   Clear
1:56 PM 78.1 °F 46.9 °F 33% 29.90 in 10.0 mi NNW 15.0 mph - N/A   Clear
2:56 PM 77.0 °F 46.0 °F 33% 29.89 in 10.0 mi NNW 16.1 mph 23.0 mph N/A   Clear
3:56 PM 75.9 °F 46.0 °F 35% 29.88 in 10.0 mi North 18.4 mph 25.3 mph N/A   Clear
4:56 PM 71.1 °F 46.9 °F 42% 29.87 in 10.0 mi North 10.4 mph - N/A   Clear
5:56 PM 73.9 °F 48.0 °F 40% 29.86 in 10.0 mi North 13.8 mph - N/A   Clear
6:56 PM 70.0 °F 45.0 °F 41% 29.86 in 10.0 mi NNW 13.8 mph - N/A   Clear
7:56 PM 66.9 °F 48.9 °F 52% 29.87 in 10.0 mi NNW 8.1 mph - N/A   Clear
8:56 PM 64.0 °F 51.1 °F 63% 29.88 in 10.0 mi North 6.9 mph - N/A   Clear
9:56 PM 63.0 °F 54.0 °F 72% 29.88 in 10.0 mi NNW 10.4 mph - N/A   Clear
10:56 PM 61.0 °F 53.1 °F 75% 29.87 in 10.0 mi NW 8.1 mph - N/A   Clear
11:56 PM 61.0 °F 53.1 °F 75% 29.87 in 10.0 mi NW 8.1 mph - N/A   Clear